Estación Meteorológica Peña el Pijo (Robertgarden) [ 07/07/20 11:52:50 CEST ]

Fecha Hora Presion(HPa) Temp (°C) Humedad % Rocio (°C) Viento ( m/s) Direccion Lluvia 1Hora(mm) Lluvia 24H(mm) LLuvia Total(mm)
2020-May-20 01:08:45 1010.900 - - - - W     39.88
2020-May-20 02:09:04 1010.600 - - - - W     39.88
2020-May-20 03:09:13 1010.400 - - - - W     39.88
2020-May-20 04:09:20 1010.000 - - - - W     39.88
2020-May-20 05:09:26 1009.500 - - - - W     39.88
2020-May-20 06:09:13 1009.400 - - - - W     39.88
2020-May-20 07:10:39 1009.600 - - - - W     39.88
2020-May-20 08:09:21 1009.800 - - - - W     39.88
2020-May-20 09:09:53 1009.700 - - - - W     39.88
2020-May-20 10:09:42 1009.600 - - - - W     39.88
2020-May-20 11:08:46 1009.600 - - - - W     39.88
2020-May-20 12:09:25 1009.600 - - - - W     39.88
2020-May-20 13:09:31 1009.500 - - - - W     39.88
2020-May-20 14:09:35 1009.200 - - - - W     39.88
2020-May-20 15:09:21 1008.900 - - - - W     39.88
2020-May-20 16:09:36 1008.500 - - - - W     39.88
2020-May-20 17:08:51 1008.300 - - - - W     39.88
2020-May-20 18:08:55 1008.200 - - - - W     39.88
2020-May-20 19:09:24 1008.500 - - - - W     39.88
2020-May-20 20:09:29 1009.100 - - - - W     39.88
2020-May-20 21:08:59 1009.500 - - - - W     39.88
2020-May-20 22:09:15 1010.300 - - - - W     39.88
2020-May-20 23:08:49 1011.200 - - - - W     39.88

Temperatura Máxima:    Temperatura Mínima:
Presión Máxima:1011.200 Hpa    Presión Mínima:1008.200 Hpa


Volver